Time,TemperatureF,DewpointF,PressureIn,WindDirection,WindDirectionDegrees,WindSpeedMPH,WindSpeedGustMPH,Humidity,HourlyPrecipIn,Conditions,Clouds,dailyrainin,SoftwareType,DateUTC
2013-03-01 00:04:00,34.0,33.7,29.72,West,270,5.8,-999.0,99,-99.99,,,0.00,Acu-Link.com,2013-03-01 05:04:00,
2013-03-01 00:19:00,34.0,33.7,29.72,NNW,337,2.7,-999.0,99,-99.99,,,0.00,Acu-Link.com,2013-03-01 05:19:00,
2013-03-01 00:34:00,34.0,33.7,29.72,SW,225,2.2,-999.0,99,-99.99,,,0.00,Acu-Link.com,2013-03-01 05:34:00,
2013-03-01 00:49:00,34.0,33.7,29.72,WNW,292,4.2,-999.0,99,-99.99,,,0.00,Acu-Link.com,2013-03-01 05:49:00,
2013-03-01 01:05:00,34.2,33.9,29.72,West,270,1.7,-999.0,99,-99.99,,,0.00,Acu-Link.com,2013-03-01 06:05:00,
2013-03-01 01:20:00,34.2,33.9,29.73,West,270,2.7,-999.0,99,-99.99,,,0.00,Acu-Link.com,2013-03-01 06:20:00,
2013-03-01 01:35:00,34.2,33.9,29.72,NE,45,2.2,-999.0,99,-99.99,,,0.00,Acu-Link.com,2013-03-01 06:35:00,
2013-03-01 01:50:00,34.2,33.9,29.72,NNW,337,3.7,-999.0,99,-99.99,,,0.00,Acu-Link.com,2013-03-01 06:50:00,
2013-03-01 02:06:00,34.2,33.9,29.72,WSW,247,3.7,-999.0,99,-99.99,,,0.00,Acu-Link.com,2013-03-01 07:06:00,
2013-03-01 02:21:00,34.2,33.9,29.71,WSW,247,2.2,-999.0,99,-99.99,,,0.00,Acu-Link.com,2013-03-01 07:21:00,
2013-03-01 02:36:00,34.2,33.9,29.71,WSW,247,2.7,-999.0,99,-99.99,,,0.00,Acu-Link.com,2013-03-01 07:36:00,
2013-03-01 02:51:00,34.2,33.9,29.71,SW,225,3.2,-999.0,99,-99.99,,,0.00,Acu-Link.com,2013-03-01 07:51:00,
2013-03-01 03:06:00,34.2,33.7,29.71,SSW,202,1.7,-999.0,98,-99.99,,,0.00,Acu-Link.com,2013-03-01 08:06:00,
2013-03-01 03:22:00,34.2,33.7,29.71,NNE,22,1.7,-999.0,98,-99.99,,,0.00,Acu-Link.com,2013-03-01 08:22:00,
2013-03-01 03:37:00,34.2,33.7,29.70,ESE,112,1.1,-999.0,98,-99.99,,,0.00,Acu-Link.com,2013-03-01 08:37:00,
2013-03-01 03:52:00,34.2,33.7,29.70,NW,315,2.7,-999.0,98,-99.99,,,0.00,Acu-Link.com,2013-03-01 08:52:00,
2013-03-01 04:20:00,34.2,33.7,29.70,ENE,67,2.2,-999.0,98,-99.99,,,0.00,Acu-Link.com,2013-03-01 09:20:00,
2013-03-01 04:35:00,34.2,33.7,29.71,NNE,22,2.2,-999.0,98,-99.99,,,0.00,Acu-Link.com,2013-03-01 09:35:00,
2013-03-01 04:50:00,34.2,33.7,29.71,West,270,4.2,-999.0,98,-99.99,,,0.00,Acu-Link.com,2013-03-01 09:50:00,
2013-03-01 05:05:00,34.2,33.7,29.72,NW,315,0.0,-999.0,98,-99.99,,,0.00,Acu-Link.com,2013-03-01 10:05:00,
2013-03-01 05:21:00,34.2,33.7,29.72,West,270,1.7,-999.0,98,-99.99,,,0.00,Acu-Link.com,2013-03-01 10:21:00,
2013-03-01 05:36:00,34.0,33.5,29.72,ESE,112,2.7,-999.0,98,-99.99,,,0.00,Acu-Link.com,2013-03-01 10:36:00,
2013-03-01 05:51:00,34.0,33.5,29.72,SW,225,2.2,-999.0,98,-99.99,,,0.00,Acu-Link.com,2013-03-01 10:51:00,
2013-03-01 06:06:00,33.8,33.0,29.72,NNW,337,2.2,-999.0,97,-99.99,,,0.00,Acu-Link.com,2013-03-01 11:06:00,
2013-03-01 06:22:00,33.8,33.0,29.72,WSW,247,1.1,-999.0,97,-99.99,,,0.00,Acu-Link.com,2013-03-01 11:22:00,
2013-03-01 06:37:00,33.8,33.0,29.72,SSE,157,1.7,-999.0,97,-99.99,,,0.00,Acu-Link.com,2013-03-01 11:37:00,
2013-03-01 06:52:00,33.8,33.0,29.72,West,270,1.1,-999.0,97,-99.99,,,0.00,Acu-Link.com,2013-03-01 11:52:00,
2013-03-01 07:07:00,33.6,33.1,29.72,NNE,22,1.7,-999.0,98,-99.99,,,0.00,Acu-Link.com,2013-03-01 12:07:00,
2013-03-01 07:23:00,33.4,33.1,29.72,West,270,0.0,-999.0,99,-99.99,,,0.00,Acu-Link.com,2013-03-01 12:23:00,
2013-03-01 07:38:00,33.1,32.8,29.72,WNW,292,3.2,-999.0,99,-99.99,,,0.00,Acu-Link.com,2013-03-01 12:38:00,
2013-03-01 07:53:00,32.9,32.7,29.73,West,270,4.2,-999.0,99,-99.99,,,0.01,Acu-Link.com,2013-03-01 12:53:00,
2013-03-01 08:08:00,32.9,32.7,29.74,West,270,2.7,-999.0,99,-99.99,,,0.01,Acu-Link.com,2013-03-01 13:08:00,
2013-03-01 08:24:00,33.3,33.0,29.74,WSW,247,3.7,-999.0,99,-99.99,,,0.01,Acu-Link.com,2013-03-01 13:24:00,
2013-03-01 08:39:00,33.4,32.9,29.75,NW,315,3.2,-999.0,98,-99.99,,,0.01,Acu-Link.com,2013-03-01 13:39:00,
2013-03-01 08:54:00,33.4,32.6,29.75,WNW,292,2.7,-999.0,97,-99.99,,,0.01,Acu-Link.com,2013-03-01 13:54:00,
2013-03-01 09:09:00,33.6,32.8,29.75,WSW,247,4.2,-999.0,97,-99.99,,,0.01,Acu-Link.com,2013-03-01 14:09:00,
2013-03-01 09:24:00,33.8,33.3,29.75,West,270,3.2,-999.0,98,-99.99,,,0.01,Acu-Link.com,2013-03-01 14:24:00,
2013-03-01 09:40:00,33.8,33.3,29.75,SSW,202,2.2,-999.0,98,-99.99,,,0.01,Acu-Link.com,2013-03-01 14:40:00,
2013-03-01 09:55:00,33.6,33.1,29.76,WNW,292,4.2,-999.0,98,-99.99,,,0.01,Acu-Link.com,2013-03-01 14:55:00,
2013-03-01 10:10:00,33.8,33.3,29.76,SSW,202,4.2,-999.0,98,-99.99,,,0.01,Acu-Link.com,2013-03-01 15:10:00,
2013-03-01 10:25:00,34.5,33.7,29.76,West,270,1.7,-999.0,97,-99.99,,,0.01,Acu-Link.com,2013-03-01 15:25:00,
2013-03-01 10:41:00,35.1,34.1,29.76,WNW,292,1.1,-999.0,96,-99.99,,,0.02,Acu-Link.com,2013-03-01 15:41:00,
2013-03-01 10:56:00,34.9,33.6,29.76,ESE,112,2.2,-999.0,95,-99.99,,,0.02,Acu-Link.com,2013-03-01 15:56:00,
2013-03-01 11:11:00,35.2,33.9,29.76,North,0,2.2,-999.0,95,-99.99,,,0.02,Acu-Link.com,2013-03-01 16:11:00,
2013-03-01 11:26:00,36.0,34.4,29.76,WSW,247,2.7,-999.0,94,-99.99,,,0.02,Acu-Link.com,2013-03-01 16:26:00,
2013-03-01 11:41:00,36.1,34.0,29.76,West,270,3.2,-999.0,92,-99.99,,,0.02,Acu-Link.com,2013-03-01 16:41:00,
2013-03-01 11:56:00,36.7,34.3,29.76,West,270,2.7,-999.0,91,-99.99,,,0.02,Acu-Link.com,2013-03-01 16:56:00,
2013-03-01 12:11:00,36.7,34.6,29.76,SW,225,3.7,-999.0,92,-99.99,,,0.02,Acu-Link.com,2013-03-01 17:11:00,
2013-03-01 12:26:00,36.9,34.5,29.76,WSW,247,2.7,-999.0,91,-99.99,,,0.02,Acu-Link.com,2013-03-01 17:26:00,
2013-03-01 12:41:00,36.7,34.9,29.75,SW,225,1.7,-999.0,93,-99.99,,,0.02,Acu-Link.com,2013-03-01 17:41:00,
2013-03-01 12:57:00,36.7,34.6,29.75,NNE,22,1.7,-999.0,92,-99.99,,,0.02,Acu-Link.com,2013-03-01 17:57:00,
2013-03-01 13:12:00,36.9,34.5,29.74,West,270,1.7,-999.0,91,-99.99,,,0.02,Acu-Link.com,2013-03-01 18:12:00,
2013-03-01 13:27:00,36.0,34.2,29.74,West,270,5.8,-999.0,93,-99.99,,,0.02,Acu-Link.com,2013-03-01 18:27:00,
2013-03-01 13:42:00,36.3,35.0,29.73,West,270,2.2,-999.0,95,-99.99,,,0.03,Acu-Link.com,2013-03-01 18:42:00,
2013-03-01 13:57:00,37.4,35.3,29.73,West,270,3.7,-999.0,92,-99.99,,,0.03,Acu-Link.com,2013-03-01 18:57:00,
2013-03-01 14:12:00,37.6,34.9,29.73,West,270,3.2,-999.0,90,-99.99,,,0.03,Acu-Link.com,2013-03-01 19:12:00,
2013-03-01 14:28:00,37.6,34.7,29.73,WSW,247,3.7,-999.0,89,-99.99,,,0.03,Acu-Link.com,2013-03-01 19:28:00,
2013-03-01 14:43:00,36.7,34.6,29.72,West,270,4.7,-999.0,92,-99.99,,,0.03,Acu-Link.com,2013-03-01 19:43:00,
2013-03-01 14:59:00,36.7,34.6,29.72,SW,225,3.7,-999.0,92,-99.99,,,0.03,Acu-Link.com,2013-03-01 19:59:00,
2013-03-01 15:14:00,36.7,34.6,29.73,WSW,247,4.7,-999.0,92,-99.99,,,0.03,Acu-Link.com,2013-03-01 20:14:00,
2013-03-01 15:29:00,37.0,35.4,29.73,NNE,22,2.2,-999.0,94,-99.99,,,0.03,Acu-Link.com,2013-03-01 20:29:00,
2013-03-01 15:44:00,35.4,33.8,29.72,West,270,2.2,-999.0,94,-99.99,,,0.03,Acu-Link.com,2013-03-01 20:44:00,
2013-03-01 16:00:00,36.0,34.7,29.73,SW,225,2.7,-999.0,95,-99.99,,,0.04,Acu-Link.com,2013-03-01 21:00:00,
2013-03-01 16:15:00,36.3,34.5,29.73,West,270,3.2,-999.0,93,-99.99,,,0.04,Acu-Link.com,2013-03-01 21:15:00,
2013-03-01 16:30:00,36.1,33.7,29.73,West,270,3.7,-999.0,91,-99.99,,,0.04,Acu-Link.com,2013-03-01 21:30:00,
2013-03-01 16:45:00,36.9,34.8,29.72,West,270,4.2,-999.0,92,-99.99,,,0.04,Acu-Link.com,2013-03-01 21:45:00,
2013-03-01 17:00:00,35.6,34.0,29.73,WSW,247,4.7,-999.0,94,-99.99,,,0.05,Acu-Link.com,2013-03-01 22:00:00,
2013-03-01 17:15:00,35.8,33.4,29.73,NNW,337,2.2,-999.0,91,-99.99,,,0.05,Acu-Link.com,2013-03-01 22:15:00,
2013-03-01 17:30:00,36.1,33.7,29.73,North,0,1.7,-999.0,91,-99.99,,,0.05,Acu-Link.com,2013-03-01 22:30:00,
2013-03-01 17:45:00,35.8,33.7,29.73,West,270,4.7,-999.0,92,-99.99,,,0.05,Acu-Link.com,2013-03-01 22:45:00,
2013-03-01 18:00:00,34.9,33.9,29.74,WSW,247,2.7,-999.0,96,-99.99,,,0.05,Acu-Link.com,2013-03-01 23:00:00,
2013-03-01 18:16:00,34.3,33.5,29.74,NE,45,2.2,-999.0,97,-99.99,,,0.05,Acu-Link.com,2013-03-01 23:16:00,
2013-03-01 18:31:00,34.0,33.5,29.75,SW,225,1.7,-999.0,98,-99.99,,,0.05,Acu-Link.com,2013-03-01 23:31:00,
2013-03-01 18:46:00,34.0,33.5,29.75,West,270,1.7,-999.0,98,-99.99,,,0.05,Acu-Link.com,2013-03-01 23:46:00,
2013-03-01 19:01:00,34.0,33.7,29.75,SSW,202,2.2,-999.0,99,-99.99,,,0.05,Acu-Link.com,2013-03-02 00:01:00,
2013-03-01 19:16:00,34.0,33.5,29.75,South,180,2.2,-999.0,98,-99.99,,,0.05,Acu-Link.com,2013-03-02 00:16:00,
2013-03-01 19:32:00,33.6,33.1,29.75,SW,225,1.7,-999.0,98,-99.99,,,0.05,Acu-Link.com,2013-03-02 00:32:00,
2013-03-01 19:47:00,33.6,33.3,29.76,SE,135,0.0,-999.0,99,-99.99,,,0.05,Acu-Link.com,2013-03-02 00:47:00,
2013-03-01 20:02:00,33.4,33.1,29.76,West,270,1.7,-999.0,99,-99.99,,,0.05,Acu-Link.com,2013-03-02 01:02:00,
2013-03-01 20:17:00,33.3,33.0,29.76,WNW,292,2.7,-999.0,99,-99.99,,,0.05,Acu-Link.com,2013-03-02 01:17:00,
2013-03-01 20:33:00,33.3,33.0,29.75,NNW,337,1.7,-999.0,99,-99.99,,,0.06,Acu-Link.com,2013-03-02 01:33:00,
2013-03-01 20:48:00,33.1,32.8,29.75,East,90,1.1,-999.0,99,-99.99,,,0.06,Acu-Link.com,2013-03-02 01:48:00,
2013-03-01 21:03:00,32.7,32.5,29.76,NE,45,2.7,-999.0,99,-99.99,,,0.06,Acu-Link.com,2013-03-02 02:03:00,
2013-03-01 21:19:00,32.5,32.3,29.76,NNE,22,2.7,-999.0,99,-99.99,,,0.06,Acu-Link.com,2013-03-02 02:19:00,
2013-03-01 21:34:00,32.4,32.2,29.76,ENE,67,2.7,-999.0,99,-99.99,,,0.06,Acu-Link.com,2013-03-02 02:34:00,
2013-03-01 21:49:00,32.0,31.8,29.76,NE,45,3.2,-999.0,99,-99.99,,,0.06,Acu-Link.com,2013-03-02 02:49:00,
2013-03-01 22:04:00,32.0,31.8,29.77,North,0,3.2,-999.0,99,-99.99,,,0.06,Acu-Link.com,2013-03-02 03:04:00,
2013-03-01 22:20:00,32.0,31.8,29.77,East,90,2.7,-999.0,99,-99.99,,,0.06,Acu-Link.com,2013-03-02 03:20:00,
2013-03-01 22:35:00,32.0,31.8,29.77,NNW,337,4.2,-999.0,99,-99.99,,,0.06,Acu-Link.com,2013-03-02 03:35:00,
2013-03-01 22:50:00,32.0,31.8,29.77,ENE,67,2.2,-999.0,99,-99.99,,,0.06,Acu-Link.com,2013-03-02 03:50:00,
2013-03-01 23:06:00,32.0,31.8,29.77,ENE,67,2.2,-999.0,99,-99.99,,,0.06,Acu-Link.com,2013-03-02 04:06:00,
2013-03-01 23:21:00,31.8,31.6,29.77,East,90,3.2,-999.0,99,-99.99,,,0.06,Acu-Link.com,2013-03-02 04:21:00,
2013-03-01 23:36:00,31.6,31.4,29.77,ENE,67,3.7,-999.0,99,-99.99,,,0.06,Acu-Link.com,2013-03-02 04:36:00,
2013-03-01 23:51:00,31.3,30.3,29.77,ENE,67,3.7,-999.0,96,-99.99,,,0.06,Acu-Link.com,2013-03-02 04:51:00,